Wind_Speed
12 12 12 12 11 11 11 11 13 12 12 14 13 15 20 23 25 24 25 28 25 26 22 16 11 6 5 4 6 9 3 4 3 5 7 10 9 10 10 10 13 15 14 19 19
13 13 13 13 13 12 12 12 11 12 12 12 13 12 16 18 22 23 23 22 22 22 24 19 14 9 8 5 7 7 3 2 2 4 7 11 8 8 10 13 15 15 14 18 17
14 14 14 13 13 13 13 13 12 11 12 12 13 13 12 14 15 20 22 21 22 20 23 21 17 13 11 9 10 5 3 1 1 7 9 9 10 6 10 11 11 13 14 18 16
15 15 15 15 15 14 14 14 14 12 11 12 13 13 11 11 3 13 19 22 24 24 25 25 22 18 15 15 12 8 5 1 2 5 10 9 11 9 8 8 9 9 12 17 18
18 17 16 16 15 16 16 15 14 15 13 12 13 14 12 13 10 16 14 20 23 26 28 28 26 21 17 15 14 12 6 6 5 8 10 11 9 11 7 6 11 13 15 14 15
20 20 20 19 19 18 17 17 16 16 15 14 13 14 14 13 10 16 19 18 22 27 28 32 29 23 15 16 19 10 12 9 7 10 11 12 12 12 8 6 8 12 14 16 16
19 20 21 22 22 22 22 19 17 18 16 15 15 15 14 6 11 16 19 20 21 27 29 32 31 26 19 17 16 15 9 8 8 10 11 13 13 14 12 10 8 13 14 15 16
20 20 20 21 23 22 24 23 20 18 17 16 17 17 14 10 12 16 19 19 21 26 30 33 34 31 19 18 15 15 13 11 12 13 11 14 10 15 16 12 11 12 14 13 15
18 19 20 21 22 22 22 23 22 21 18 17 17 18 16 8 8 14 16 19 21 25 28 35 34 25 22 23 20 19 19 18 15 16 13 16 7 12 13 17 15 14 15 15 16
18 17 18 20 21 22 21 21 21 22 21 19 19 16 11 6 5 8 15 18 20 24 27 32 31 25 27 31 30 23 20 20 18 19 15 17 12 8 11 18 19 20 19 19 19
20 19 18 20 20 21 19 20 19 20 20 19 18 15 14 17 12 12 14 17 20 19 24 29 32 38 35 32 27 21 19 19 19 14 18 17 16 16 12 15 20 22 24 24 22
21 20 19 21 21 21 19 18 19 21 24 21 23 25 21 22 20 17 16 21 21 24 25 28 38 33 30 30 29 23 23 22 17 15 17 15 18 18 19 18 18 22 25 27 24
23 21 18 20 22 21 18 17 18 20 24 22 21 23 24 26 25 23 23 22 24 25 30 29 32 29 31 31 31 29 26 25 21 16 17 13 18 19 21 20 19 21 23 26 27
26 24 19 19 21 20 18 16 14 15 16 14 17 17 20 23 24 29 27 23 22 30 27 27 29 33 30 33 33 32 28 24 23 19 19 17 18 16 16 21 22 20 23 25 24
30 27 22 19 21 21 18 16 13 9 6 6 8 12 16 16 11 16 31 27 26 25 31 31 33 30 35 36 33 35 25 25 25 26 23 17 15 19 15 19 22 21 22 22 23
31 30 25 21 21 21 17 13 10 5 10 7 11 14 13 16 14 14 32 30 23 25 29 30 23 30 32 31 33 29 22 21 25 27 29 30 21 21 21 20 18 19 23 21 21
33 30 29 21 22 20 18 14 8 14 6 11 13 16 11 11 15 16 28 38 34 32 35 30 32 27 26 32 33 32 29 21 19 20 16 31 28 28 13 19 16 14 19 23 23
30 30 29 26 23 23 21 21 21 9 22 12 14 18 18 13 13 18 21 37 37 32 27 34 34 36 27 39 40 41 41 27 25 16 17 29 24 34 27 25 21 20 17 19 16
27 28 28 26 24 26 25 32 22 25 19 20 14 17 22 20 12 17 25 31 38 39 35 32 39 32 37 30 40 41 47 40 33 30 25 30 28 30 25 25 21 17 18 16 19
27 27 28 26 25 29 34 47 28 24 17 19 27 21 23 24 19 19 19 20 32 37 33 24 25 32 30 30 37 43 42 41 43 25 23 30 30 24 20 22 20 17 16 17 17
27 24 27 22 22 30 37 37 33 32 25 25 28 27 23 20 22 22 21 21 21 32 37 33 24 25 32 42 41 40 37 47 41 41 17 18 29 27 22 17 15 15 15 16 18
25 18 19 19 22 24 30 26 30 25 33 31 29 30 33 27 25 23 20 16 16 26 35 37 26 27 32 37 38 40 40 42 39 36 40 40 31 28 29 26 26 24 20 20 21
27 25 24 22 19 24 24 23 25 24 28 30 38 33 31 32 30 30 28 21 11 14 27 32 38 25 27 25 34 45 41 43 45 41 44 31 35 31 17 19 15 21 20 17 19
22 15 14 15 16 19 18 23 23 21 24 29 28 31 32 32 33 27 25 25 20 20 17 21 30 38 31 38 33 33 42 44 44 43 40 45 34 37 35 30 26 22 20 22 21
23 15 18 11 10 15 14 17 15 16 19 18 29 30 31 36 34 35 27 19 14 19 23 23 28 28 36 31 32 35 36 38 46 50 47 43 46 38 38 29 29 27 22 22 25
19 17 27 29 26 24 18 17 14 16 18 16 21 17 34 32 32 28 27 29 27 21 23 23 24 26 30 33 33 33 36 39 41 43 46 49 48 39 38 40 35 32 31 30 31
20 22 21 21 23 22 15 15 12 8 16 17 16 13 10 20 26 27 27 21 28 25 24 26 28 26 28 30 31 37 39 39 42 45 44 48 47 43 46 39 40 38 35 34 29
Wind_Direction
298 297 300 307 308 300 291 287 291 293 293 286 282 270 263 255 254 251 248 247 250 252 250 247 256 247 217 237 196 162 191 163 130 122 141 148 141 145 156 148 155 170 169 168 163
298 298 299 301 302 307 307 299 290 295 300 300 290 285 267 259 249 249 246 242 240 241 241 238 240 236 228 233 207 178 275 108 169 173 152 151 147 148 148 156 162 168 190 179 170
295 295 296 299 301 303 304 306 307 299 296 300 301 292 278 267 254 246 242 238 235 230 227 227 228 226 226 212 208 226 276 260 221 170 174 152 153 135 149 167 174 171 185 180 173
293 292 293 293 296 299 300 302 304 308 303 296 299 303 290 267 233 241 229 230 228 220 218 216 218 224 219 219 218 219 229 155 222 178 177 176 161 154 139 163 181 172 175 177 176
285 285 285 286 287 292 296 297 299 302 302 299 293 295 296 272 235 237 221 220 222 221 213 212 217 222 223 216 216 218 233 270 262 191 183 182 181 169 166 154 167 174 174 180 181
287 281 279 279 281 282 285 291 296 296 299 297 298 291 292 289 250 236 234 228 220 214 212 206 208 215 230 223 216 234 241 262 225 194 190 186 186 187 187 190 182 175 173 178 187
296 289 283 277 274 277 280 281 286 291 294 296 294 293 291 298 252 233 230 228 223 213 206 205 205 205 211 216 215 222 241 259 187 193 190 182 205 202 202 213 205 184 179 182 190
301 299 295 287 279 273 273 276 278 280 286 290 293 292 295 269 252 237 233 225 219 216 205 203 204 209 215 211 215 219 225 208 195 191 211 187 209 198 214 215 217 206 198 193 198
297 297 295 294 291 285 277 274 273 275 277 281 283 288 294 273 244 239 233 221 214 211 207 204 201 204 209 207 215 214 214 209 193 198 218 195 216 203 214 218 225 222 215 212 212
295 296 294 292 291 288 284 279 276 273 271 272 278 277 260 250 258 234 221 221 210 207 206 205 196 201 205 206 211 204 219 195 197 203 207 208 207 174 209 210 213 226 223 222 224
292 292 291 288 289 289 289 288 284 283 270 262 253 242 256 263 260 242 213 212 209 205 193 194 197 206 208 209 211 213 209 204 203 215 206 221 224 232 233 221 216 218 221 226 227
298 295 292 288 288 288 291 287 282 281 279 265 258 254 247 252 240 237 212 201 198 195 189 195 210 208 208 212 213 218 214 212 201 212 208 229 237 237 239 234 227 220 223 223 222
299 295 289 284 284 285 285 288 285 285 287 283 256 250 247 244 239 220 217 201 201 198 200 206 212 203 208 210 212 220 218 213 208 219 223 235 251 244 239 235 233 229 223 224 223
294 292 288 275 276 278 280 280 281 293 297 276 257 233 232 234 238 219 217 205 207 207 208 214 206 209 209 210 211 217 215 218 215 212 224 224 247 222 234 237 234 243 230 219 221
295 290 286 268 264 268 269 270 275 292 283 236 203 188 195 191 209 229 212 203 211 204 204 209 207 210 213 212 210 219 219 224 225 220 231 204 240 240 226 235 241 244 238 232 219
288 286 283 269 259 260 258 253 242 227 239 218 197 197 201 210 214 223 204 204 212 215 216 213 219 216 216 213 211 215 226 228 227 228 226 228 217 239 225 236 239 241 236 244 248
284 280 277 266 251 251 246 226 214 230 215 214 202 196 197 209 200 206 197 200 203 202 211 211 217 216 210 210 211 208 209 208 218 222 232 222 233 232 223 229 241 245 246 235 236
278 275 269 264 244 239 227 209 226 239 215 199 199 206 213 212 212 207 202 207 210 212 212 208 212 210 210 210 206 208 208 217 214 220 221 231 230 236 244 249 256 254 244 240 244
277 270 265 258 243 234 222 217 224 231 235 215 211 212 220 226 211 208 213 217 215 211 218 211 224 216 215 210 207 210 217 220 236 226 234 227 228 244 240 247 257 252 241 240 242
277 265 261 258 244 232 229 230 235 232 220 217 219 219 219 217 221 216 215 227 220 218 217 225 224 214 214 212 214 217 218 218 228 232 227 240 233 229 235 243 240 245 246 241 255
283 279 268 260 240 230 229 236 239 231 226 229 225 224 223 216 223 231 229 226 218 214 215 217 221 221 214 210 208 209 222 219 226 227 239 228 236 232 233 229 233 240 249 241 253
289 284 264 249 239 237 240 238 237 233 232 230 229 225 234 231 227 226 220 215 210 207 214 214 218 232 217 221 218 217 216 215 222 224 233 245 244 238 243 248 253 255 249 254 254
302 295 284 261 246 244 250 248 245 240 234 233 234 231 230 232 230 232 226 215 223 203 211 207 219 216 228 215 217 220 218 221 222 230 229 229 236 235 231 216 235 240 238 269 270
311 306 298 276 253 248 251 251 252 243 243 229 235 232 228 230 223 225 229 227 232 216 204 200 212 220 215 214 206 214 222 223 223 225 234 238 235 234 234 239 240 228 251 272 272
280 280 279 266 261 240 252 258 255 245 245 232 235 227 224 226 225 227 223 208 214 216 216 209 217 225 228 231 224 225 220 223 229 234 237 239 239 233 231 235 237 247 252 257 267
268 260 264 265 270 269 268 264 264 258 248 233 232 234 228 224 221 219 220 221 226 224 218 208 222 223 230 230 232 236 232 231 231 235 238 240 241 234 240 240 243 243 249 253 249
277 271 259 262 261 261 264 255 250 261 255 245 254 253 229 217 225 224 223 222 225 224 214 216 221 227 236 228 235 239 237 236 237 236 237 237 238 239 237 240 239 243 247 244 248
Height
3167 3166 3165 3164 3163 3162 3161 3160 3159 3159 3158 3157 3157 3156 3154 3155 3157 3159 3162 3163 3167 3169 3173 3176 3178 3179 3181 3182 3182 3183 3185 3183 3186 3186 3187 3186 3188 3187 3188 3188 3190 3192 3194 3196 3196
3164 3163 3162 3161 3160 3159 3157 3156 3156 3155 3155 3154 3153 3152 3151 3151 3152 3155 3157 3158 3161 3165 3170 3174 3176 3178 3180 3182 3183 3184 3183 3184 3185 3186 3188 3187 3190 3188 3189 3189 3191 3193 3194 3196 3198
3161 3160 3159 3158 3157 3156 3155 3153 3152 3152 3151 3150 3149 3149 3148 3148 3150 3150 3151 3154 3157 3161 3166 3170 3173 3176 3178 3182 3183 3184 3183 3185 3185 3186 3187 3188 3189 3189 3191 3192 3193 3193 3194 3196 3199
3158 3157 3156 3155 3154 3152 3151 3150 3149 3148 3148 3146 3145 3145 3145 3145 3151 3146 3147 3150 3152 3156 3161 3166 3171 3174 3177 3180 3182 3183 3184 3185 3185 3185 3188 3189 3190 3190 3191 3194 3193 3193 3195 3197 3199
3155 3154 3153 3152 3151 3149 3148 3148 3146 3145 3145 3143 3142 3141 3142 3142 3144 3142 3144 3146 3148 3152 3157 3162 3168 3172 3175 3179 3181 3181 3183 3183 3184 3184 3187 3189 3189 3191 3191 3191 3192 3193 3195 3198 3200
3151 3150 3149 3147 3146 3145 3144 3143 3143 3142 3141 3140 3139 3138 3138 3138 3138 3138 3141 3143 3145 3148 3154 3159 3164 3170 3175 3177 3179 3181 3181 3181 3181 3183 3185 3188 3189 3189 3190 3191 3192 3193 3195 3197 3199
3145 3145 3144 3143 3141 3141 3139 3138 3138 3138 3137 3137 3135 3134 3134 3135 3134 3134 3136 3138 3141 3145 3150 3156 3162 3167 3171 3175 3177 3178 3180 3179 3179 3181 3184 3187 3188 3187 3188 3190 3191 3192 3194 3196 3198
3140 3138 3137 3136 3136 3135 3134 3134 3133 3133 3133 3133 3132 3130 3129 3129 3129 3131 3132 3135 3137 3141 3146 3152 3156 3162 3169 3172 3173 3176 3178 3178 3178 3179 3181 3185 3184 3186 3186 3188 3190 3191 3193 3194 3196
3137 3135 3133 3130 3129 3129 3129 3128 3128 3128 3128 3128 3128 3127 3125 3124 3125 3126 3129 3131 3134 3138 3143 3147 3153 3160 3164 3168 3171 3172 3170 3172 3175 3177 3178 3183 3184 3184 3183 3186 3188 3189 3191 3192 3194
3131 3129 3128 3127 3125 3123 3123 3123 3123 3123 3123 3123 3123 3126 3123 3123 3122 3123 3125 3128 3130 3134 3140 3144 3149 3155 3159 3162 3161 3164 3166 3167 3172 3174 3176 3180 3183 3183 3182 3184 3186 3187 3188 3189 3191
3127 3124 3123 3121 3119 3118 3119 3119 3120 3118 3117 3118 3118 3119 3119 3118 3119 3120 3122 3125 3128 3132 3136 3140 3146 3144 3152 3157 3160 3162 3164 3165 3169 3172 3174 3177 3179 3181 3180 3182 3184 3185 3184 3186 3188
3123 3121 3120 3117 3114 3113 3114 3114 3113 3113 3108 3109 3110 3109 3113 3113 3115 3115 3119 3123 3125 3128 3135 3139 3135 3145 3152 3156 3158 3159 3161 3162 3166 3169 3172 3174 3175 3177 3178 3177 3179 3181 3181 3182 3184
3117 3116 3114 3112 3110 3109 3109 3110 3109 3107 3104 3100 3100 3101 3104 3106 3108 3112 3113 3118 3121 3126 3128 3131 3136 3143 3147 3150 3153 3155 3156 3158 3161 3166 3169 3170 3170 3171 3173 3173 3173 3175 3177 3178 3179
3110 3108 3108 3108 3108 3104 3105 3104 3104 3104 3101 3097 3093 3093 3095 3098 3099 3104 3107 3115 3118 3120 3124 3128 3134 3136 3139 3142 3148 3149 3153 3156 3158 3162 3163 3166 3162 3163 3167 3168 3168 3169 3171 3173 3174
3102 3100 3102 3100 3100 3099 3101 3100 3102 3103 3099 3091 3088 3089 3090 3094 3094 3095 3101 3109 3112 3115 3119 3119 3124 3128 3131 3135 3143 3145 3151 3154 3155 3157 3160 3160 3164 3158 3161 3163 3164 3163 3165 3168 3170
3092 3092 3093 3093 3094 3094 3094 3096 3099 3103 3090 3085 3084 3086 3089 3088 3090 3091 3095 3104 3110 3112 3113 3117 3119 3124 3127 3133 3138 3145 3149 3150 3151 3152 3149 3151 3156 3153 3155 3158 3160 3162 3162 3163 3165
3082 3082 3082 3086 3087 3087 3089 3092 3098 3087 3080 3080 3081 3084 3087 3087 3086 3086 3089 3094 3098 3103 3103 3109 3111 3115 3120 3127 3133 3138 3143 3143 3144 3141 3138 3143 3149 3149 3150 3154 3156 3158 3159 3159 3161
3073 3072 3072 3074 3077 3079 3082 3085 3081 3071 3075 3072 3075 3080 3082 3084 3083 3082 3085 3088 3092 3096 3098 3100 3103 3105 3108 3114 3121 3126 3130 3128 3130 3131 3135 3140 3138 3141 3148 3151 3152 3153 3155 3156 3155
3062 3062 3061 3064 3068 3071 3074 3070 3059 3065 3068 3070 3072 3074 3075 3077 3079 3079 3078 3079 3083 3087 3092 3093 3093 3100 3104 3110 3116 3118 3119 3128 3126 3127 3127 3129 3136 3142 3143 3144 3146 3147 3149 3149 3151
3050 3051 3051 3053 3056 3058 3058 3046 3052 3058 3061 3064 3063 3065 3066 3069 3073 3072 3072 3072 3075 3081 3087 3088 3092 3094 3099 3106 3107 3108 3118 3122 3119 3115 3117 3123 3125 3128 3135 3137 3140 3142 3143 3145 3146
3042 3041 3040 3043 3044 3044 3037 3041 3046 3049 3053 3058 3056 3058 3060 3060 3065 3065 3065 3068 3069 3073 3080 3084 3088 3089 3095 3090 3094 3102 3104 3109 3116 3114 3110 3116 3117 3125 3130 3132 3134 3137 3139 3141 3142
3034 3035 3033 3034 3035 3032 3032 3037 3037 3038 3043 3045 3050 3049 3054 3056 3057 3061 3061 3065 3063 3068 3071 3078 3083 3083 3082 3086 3092 3095 3099 3103 3103 3107 3107 3110 3109 3118 3122 3127 3129 3132 3134 3135 3136
3028 3026 3025 3027 3022 3028 3027 3027 3029 3029 3033 3037 3039 3042 3047 3050 3051 3053 3056 3059 3061 3064 3066 3072 3073 3078 3080 3083 3085 3085 3090 3094 3098 3103 3097 3103 3107 3115 3118 3120 3122 3125 3127 3128 3129
3025 3023 3022 3019 3018 3019 3021 3020 3020 3022 3025 3027 3032 3034 3037 3040 3042 3046 3049 3053 3056 3059 3061 3063 3067 3067 3064 3066 3075 3081 3082 3086 3089 3089 3092 3089 3101 3107 3111 3115 3118 3120 3121 3123 3123
3017 3018 3015 3017 3018 3014 3015 3016 3013 3015 3019 3020 3023 3024 3027 3032 3033 3036 3044 3046 3049 3052 3056 3059 3059 3061 3064 3065 3069 3071 3075 3079 3079 3081 3083 3090 3092 3099 3104 3108 3112 3115 3117 3118 3118
3009 3008 3008 3009 3009 3008 3007 3008 3009 3010 3014 3012 3017 3021 3021 3022 3026 3031 3036 3039 3042 3048 3049 3053 3054 3058 3058 3061 3063 3063 3066 3070 3072 3076 3078 3082 3080 3092 3098 3102 3104 3107 3110 3112 3113
3002 3001 3000 2999 3000 3000 3002 3004 3004 3003 3006 3007 3008 3008 3012 3018 3018 3021 3025 3028 3036 3040 3042 3046 3049 3052 3049 3054 3057 3055 3056 3059 3062 3065 3069 3066 3073 3085 3087 3089 3093 3097 3101 3105 3106